Tracking 19170 objects as of 23-May-2018
HD Live streaming from Space Station
objects crossing your sky now

H-2A DEB

Track H-2A DEB now!
10-day predictions


NORAD ID: 43069
Int'l Code: 2017-082E
Perigee: 750.5 km
Apogee: 795.1 km
Inclination: 98.5 °
Period: 100.2 minutes
Semi major axis: 7143 km
RCS: Unknown
Launch date: December 23, 2017
Source: Japan (JPN)
Launch site: TANEGASHIMA SPACE CENTER (TNSTA)

Note: This is SATELLITE DEBRIS
aabbcc
Your satellite tracking list
Your tracking list is empty




NASA's NSSDC Master Catalog

Two Line Element Set (TLE):
1 43069U 17082E   18142.14899286 +.00000321 +00000-0 +12031-3 0  9999
2 43069 098.5050 214.4532 0031227 040.4864 319.8639 14.37826966021568
Source of the keplerian elements: AFSPC